sat.trackr.live / text

‹ back to catalog

STARLINK-31840

NORAD 60127 · 2024-118Q

PAYLOAD ACTIVE UNKNOWN

§ Identity

Operator
Country
US
Launch date
2024-06-24
Launch site
AFWTR
Launch vehicle
Mass (kg)
RCS (m²)

Purposes: comms

External: N2YO · Heavens-Above · Gunter

§ Orbital elements

Epoch: 2026-05-24T22:54:49.975776Z

Period
94.01 min
Inclination
53.1619°
Eccentricity
0.0001229
Mean motion
15.31697787 rev/d
Perigee alt
469.9 km
Apogee alt
471.6 km
Semi-major
6,848.9 km
B*
2.2166e-5
RAAN
32.4266°
Arg perigee
91.1203°
Mean anomaly
268.9939°
Rev number
10,737

§ Raw data

STARLINK-318401 60127U 24118Q   26144.95474509  .00000323  00000+0  22166-4 0  99902 60127  53.1619  32.4266 0001229  91.1203 268.9939 15.31697787107374

JSON: /api/v1/satellites/60127 · /tle

For live sub-satellite position, see the globe view (requires WebGL).

§ Visibility from observer

Set your observer location to see the next 7 days of passes ≥ 10°. The values pass through the URL so the page stays shareable.

No JS? Fill the form by hand. The geolocation button needs JavaScript.